MKY440 EHAM-EDDP

Flight info

Callsign MKY440
Flight time N/A
Altitude 39000
Route ARNEM L620 HMM DCT NORTA DCT ADMOS T959 KOJEC KOJEC1R
Aircraft GLF6/M-SBDE2E3FGHIJ4J5M1RWXY/LB1D1

Departure

Time 2026-04-28 18:06
Airport Amsterdam Airport Schiphol (EHAM)

Arrival

Time N/A
Airport Leipzig/Halle Airport (EDDP)
Time Latitude Longitude Altitude Speed Heading
2026-04-28 17:40 52.30095 4.75477 -2 ft 0 kts 238°
2026-04-28 17:53 52.30095 4.75475 -2 ft 0 kts 238°
2026-04-28 17:53 52.30093 4.75473 -2 ft 0 kts 213°
2026-04-28 17:54 52.30068 4.75477 -2 ft 11 kts 172°
2026-04-28 17:54 52.30002 4.75510 -2 ft 6 kts 156°
2026-04-28 17:54 52.29985 4.75523 -2 ft 0 kts 153°
2026-04-28 17:55 52.29939 4.75549 -2 ft 6 kts 187°
2026-04-28 17:55 52.29890 4.75460 -2 ft 20 kts 239°
2026-04-28 17:55 52.29850 4.75225 -2 ft 21 kts 287°
2026-04-28 17:56 52.29927 4.75038 -2 ft 20 kts 312°
2026-04-28 17:56 52.30027 4.74855 -2 ft 25 kts 310°
2026-04-28 17:56 52.30149 4.74632 -2 ft 24 kts 312°
2026-04-28 17:56 52.30288 4.74364 -2 ft 30 kts 311°
2026-04-28 17:57 52.30441 4.74194 -2 ft 24 kts 359°
2026-04-28 17:57 52.30600 4.74210 -2 ft 20 kts
2026-04-28 17:57 52.30722 4.74222 -2 ft 15 kts
2026-04-28 17:57 52.30854 4.74235 -2 ft 24 kts
2026-04-28 17:58 52.31039 4.74254 -2 ft 24 kts
2026-04-28 17:58 52.31213 4.74265 -2 ft 29 kts
2026-04-28 17:58 52.31408 4.74281 -2 ft 27 kts
2026-04-28 17:58 52.31587 4.74297 -2 ft 24 kts
2026-04-28 17:59 52.31757 4.74315 -2 ft 27 kts
2026-04-28 17:59 52.31958 4.74338 -2 ft 28 kts
2026-04-28 17:59 52.32033 4.74119 -2 ft 22 kts 274°
2026-04-28 17:59 52.32044 4.73877 -2 ft 22 kts 274°
2026-04-28 18:00 52.32055 4.73620 -2 ft 22 kts 274°
2026-04-28 18:00 52.32094 4.73372 -2 ft 26 kts 309°
2026-04-28 18:00 52.32240 4.73148 -2 ft 28 kts 318°
2026-04-28 18:00 52.32377 4.72949 -2 ft 25 kts 319°
2026-04-28 18:01 52.32505 4.72768 -2 ft 23 kts 320°
2026-04-28 18:01 52.32630 4.72593 -2 ft 21 kts 318°
2026-04-28 18:01 52.32732 4.72421 -2 ft 25 kts 312°
2026-04-28 18:01 52.32792 4.72309 -2 ft 11 kts 311°
2026-04-28 18:02 52.32857 4.72191 -2 ft 21 kts 311°
2026-04-28 18:02 52.32967 4.71989 -2 ft 21 kts 311°
2026-04-28 18:02 52.33055 4.71826 -2 ft 19 kts 311°
2026-04-28 18:02 52.33135 4.71672 -2 ft 17 kts 302°
2026-04-28 18:03 52.33151 4.71600 -2 ft 9 kts 271°
2026-04-28 18:03 52.33087 4.71424 -2 ft 19 kts 223°
2026-04-28 18:03 52.33002 4.71302 -2 ft 13 kts 220°
2026-04-28 18:03 52.32923 4.71188 -2 ft 15 kts 221°
2026-04-28 18:04 52.32866 4.71084 -2 ft 8 kts 257°
2026-04-28 18:04 52.32864 4.71040 -2 ft 0 kts 270°
2026-04-28 18:05 52.32864 4.71003 -2 ft 2 kts 270°
2026-04-28 18:05 52.32864 4.70993 -2 ft 1 kts 270°
2026-04-28 18:05 52.32919 4.70891 -2 ft 11 kts 354°
2026-04-28 18:05 52.32928 4.70891 -2 ft 0 kts
2026-04-28 18:06 52.33137 4.70911 -2 ft 79 kts
2026-04-28 18:06 52.34020 4.70988 6 ft 186 kts
2026-04-28 18:06 52.35566 4.71185 814 ft 245 kts
2026-04-28 18:06 52.37197 4.71470 1062 ft 233 kts
2026-04-28 18:07 52.38794 4.71633 1562 ft 240 kts 351°
2026-04-28 18:07 52.40459 4.71586 2089 ft 247 kts
2026-04-28 18:07 52.42146 4.72035 2602 ft 249 kts 25°
2026-04-28 18:07 52.43673 4.73294 3111 ft 252 kts 28°
2026-04-28 18:08 52.45202 4.74665 3611 ft 253 kts 29°
2026-04-28 18:08 52.46727 4.76077 4107 ft 254 kts 34°
2026-04-28 18:08 52.47775 4.78274 4631 ft 256 kts 70°
2026-04-28 18:08 52.48151 4.81097 5245 ft 258 kts 83°
2026-04-28 18:09 52.48345 4.84030 5873 ft 261 kts 85°
2026-04-28 18:09 52.48510 4.87038 6507 ft 264 kts 85°
2026-04-28 18:09 52.48489 4.90064 7148 ft 265 kts 108°
2026-04-28 18:09 52.47545 4.92625 7815 ft 269 kts 136°
2026-04-28 18:10 52.46121 4.94535 8447 ft 272 kts 143°
2026-04-28 18:10 52.44616 4.96323 9064 ft 274 kts 144°
2026-04-28 18:10 52.43059 4.98135 9690 ft 311 kts 144°
2026-04-28 18:10 52.41181 5.00313 10351 ft 337 kts 144°
2026-04-28 18:11 52.39329 5.02457 10958 ft 336 kts 144°
2026-04-28 18:11 52.37420 5.04665 11585 ft 336 kts 144°
2026-04-28 18:11 52.35571 5.06800 12191 ft 338 kts 144°
2026-04-28 18:11 52.33804 5.09296 12952 ft 341 kts 128°
2026-04-28 18:12 52.32681 5.12658 13721 ft 346 kts 112°
2026-04-28 18:12 52.31797 5.16297 14470 ft 351 kts 111°
2026-04-28 18:12 52.30918 5.19997 15218 ft 354 kts 111°
2026-04-28 18:12 52.30022 5.23761 15971 ft 358 kts 111°
2026-04-28 18:13 52.29137 5.27471 16706 ft 362 kts 111°
2026-04-28 18:13 52.28231 5.31268 17449 ft 366 kts 111°
2026-04-28 18:13 52.27293 5.35187 18209 ft 370 kts 111°
2026-04-28 18:13 52.26362 5.39072 18953 ft 374 kts 111°
2026-04-28 18:14 52.25404 5.43061 19710 ft 379 kts 111°
2026-04-28 18:14 52.24453 5.47013 20451 ft 383 kts 111°
2026-04-28 18:14 52.23465 5.51112 21211 ft 387 kts 111°
2026-04-28 18:14 52.22507 5.55077 21939 ft 392 kts 111°
2026-04-28 18:15 52.21527 5.59131 22675 ft 396 kts 111°
2026-04-28 18:15 52.20502 5.63358 23434 ft 401 kts 111°
2026-04-28 18:15 52.19504 5.67471 24164 ft 405 kts 112°
2026-04-28 18:15 52.18426 5.71899 24851 ft 412 kts 112°
2026-04-28 18:16 52.17429 5.75990 24975 ft 417 kts 112°
2026-04-28 18:16 52.16688 5.80387 25039 ft 412 kts 98°
2026-04-28 18:16 52.16260 5.84952 25560 ft 410 kts 98°
2026-04-28 18:16 52.15839 5.89584 26065 ft 416 kts 98°
2026-04-28 18:17 52.15416 5.94253 26567 ft 421 kts 98°
2026-04-28 18:17 52.14983 5.99030 27074 ft 425 kts 98°
2026-04-28 18:17 52.14553 6.03759 27572 ft 428 kts 98°
2026-04-28 18:17 52.14111 6.08601 28078 ft 431 kts 98°
2026-04-28 18:18 52.13665 6.13458 28582 ft 434 kts 98°
2026-04-28 18:18 52.13218 6.18300 29081 ft 438 kts 98°
2026-04-28 18:18 52.12773 6.23102 29572 ft 441 kts 98°
2026-04-28 18:18 52.12463 6.26434 29910 ft 443 kts 98°
2026-04-28 18:19 52.11853 6.32963 30569 ft 448 kts 98°
2026-04-28 18:19 52.11381 6.37982 31070 ft 451 kts 98°
2026-04-28 18:19 52.10900 6.43079 31576 ft 455 kts 98°
2026-04-28 18:19 52.10416 6.48174 32078 ft 458 kts 98°
2026-04-28 18:20 52.09927 6.53303 32579 ft 462 kts 98°
2026-04-28 18:20 52.09434 6.58453 33102 ft 465 kts 98°
2026-04-28 18:20 52.08940 6.63588 33672 ft 469 kts 98°
2026-04-28 18:20 52.08443 6.68725 34237 ft 474 kts 99°
2026-04-28 18:21 52.07947 6.73831 34793 ft 478 kts 99°
2026-04-28 18:21 52.07426 6.79170 35369 ft 482 kts 99°
2026-04-28 18:21 52.06908 6.84444 35934 ft 486 kts 99°
2026-04-28 18:21 52.06368 6.89920 36515 ft 491 kts 99°
2026-04-28 18:22 52.05828 6.95373 37087 ft 496 kts 99°
2026-04-28 18:22 52.05275 7.00935 37666 ft 498 kts 99°
2026-04-28 18:22 52.04730 7.06380 38230 ft 498 kts 99°
2026-04-28 18:22 52.04181 7.11839 38789 ft 498 kts 99°
2026-04-28 18:23 52.03615 7.17441 38970 ft 501 kts 99°
2026-04-28 18:23 52.03057 7.22938 38994 ft 500 kts 99°
2026-04-28 18:23 52.01925 7.34011 38999 ft 499 kts 99°
2026-04-28 18:24 52.00966 7.43311 38999 ft 499 kts 99°
2026-04-28 18:24 51.99616 7.56269 39000 ft 499 kts 99°
2026-04-28 18:25 51.98544 7.66460 39000 ft 499 kts 100°
2026-04-28 18:26 51.96761 7.83211 39000 ft 499 kts 100°
2026-04-28 18:26 51.95577 7.94215 39000 ft 499 kts 100°
2026-04-28 18:27 51.94381 8.05225 39000 ft 499 kts 100°
2026-04-28 18:27 51.93175 8.16227 38998 ft 493 kts 100°
2026-04-28 18:28 51.91998 8.26862 38999 ft 493 kts 100°
2026-04-28 18:28 51.90768 8.37885 39000 ft 493 kts 100°
2026-04-28 18:29 51.89608 8.48192 39000 ft 493 kts 100°
2026-04-28 18:29 51.88354 8.59239 39000 ft 493 kts 100°
2026-04-28 18:30 51.87113 8.70083 39000 ft 493 kts 101°
2026-04-28 18:30 51.85844 8.81064 39000 ft 493 kts 101°
2026-04-28 18:31 51.84581 8.91914 39000 ft 493 kts 101°
2026-04-28 18:31 51.83301 9.02811 39000 ft 493 kts 101°
2026-04-28 18:32 51.82007 9.13732 39000 ft 493 kts 101°
2026-04-28 18:32 51.80727 9.24443 39000 ft 493 kts 101°
2026-04-28 18:33 51.79430 9.35216 39000 ft 493 kts 101°